{"data":{"norad_id":66142,"epoch":"2026-05-25T02:19:45.950304Z","epoch_age_seconds":66126,"freshness":"FRESH","line1":"1 66142U 25238A   26145.09705961  .00000015  00000+0  00000+0 0  9998","line2":"2 66142   5.5199 299.6547 0004294 141.9894 258.4114  1.00268917  2109","mean_motion":1.00268917,"eccentricity":0.0004294,"inclination_deg":5.5199,"raan_deg":299.6547,"arg_perigee_deg":141.9894,"mean_anomaly_deg":258.4114,"bstar":0,"rev_number":210,"period_min":1436.1379808261,"perigee_km":35769.293103714,"apogee_km":35805.504866018,"semimajor_km":42165.535984866,"source":"CELESTRAK","updated_at":"2026-05-25T13:38:14.155504Z"}}